Location: S�tio Afonso Gruber
(26.1760°S, 49.5250°W)
Time: 03:18:18
(UTC+00:00)

Tiangong - Visible Passes

Search period start: 21 September 2021 00:00
Search period end: 01 October 2021 00:00
Orbit: 380 x 385 km, 41.5° (Epoch: 20 September)

Date Brightness Start Highest point End Pass type
(mag) Time Alt. Az. Time Alt. Az. Time Alt. Az.
21 Sep 3.1 21:51:52 10° W 21:54:37 26° SSW 21:57:22 10° SSE visible
22 Sep 4.2 22:31:08 10° SSW 22:31:37 10° SSW 22:32:07 10° S visible
30 Sep 3.5 22:35:14 10° S 22:36:51 13° SSE 22:36:51 13° SSE visible
